Terug naar catalogus

THORAD AGENA D DEB

ActiefPO
NORAD 4913·DEBRIS·🇺🇸 United States

Gelanceerd Apr 8, 1970 vanaf Vandenberg Space Force Base

Loading…

Volgende Passages

TLE

Source: Space-Track
1  4913U 70025FK  26225.21030287  .00000397  00000-0  27110-3 0  9994
2  4913  99.8099 324.5600 0137984  46.4034 314.8484 14.01722234861975

Volg THORAD AGENA D DEB in realtime met AllMySat

Download on the App Store